VK2RZ Weather Reports


Display with metric or nautical units.
time (UTC)temp
F
wind
direction
speed
MPH
gust
MPH
rain 1hr
in
rain 24hr
in
rain mn
in
humidity
%
barometer
mb
20260903192231 56 258 5.0 7.0 0.00 0.00 0.00 6 1020.4
20260903191231 56 246 8.0 9.0 0.00 0.00 0.00 6 1020.4
20260903190231 56 254 5.0 5.0 0.00 0.00 0.00 6 1020.3
20260903185231 56 251 2.0 6.0 0.00 0.00 0.00 6 1020.3
20260903184230 57 256 7.0 8.0 0.00 0.00 0.00 6 1020.0
20260903183230 57 249 3.0 5.0 0.00 0.00 0.00 6 1020.2
20260903182230 57 258 4.0 8.0 0.00 0.00 0.00 6 1019.6
20260903181230 57 259 7.0 7.0 0.00 0.00 0.00 6 1019.7
20260903180230 57 237 6.0 9.0 0.00 0.00 0.00 6 1019.3
20260903175230 57 241 2.0 5.0 0.00 0.00 0.00 6 1019.5
20260903174230 57 262 8.0 9.0 0.00 0.00 0.00 6 1019.3
20260903173230 57 215 2.0 10.0 0.00 0.00 0.00 6 1019.5
20260903172230 57 252 9.0 13.0 0.00 0.00 0.00 6 1019.3
20260903171230 57 246 3.0 10.0 0.00 0.00 0.00 6 1019.4
20260903170230 57 270 3.0 6.0 0.00 0.00 0.00 6 1019.5
20260903165230 57 249 3.0 10.0 0.00 0.00 0.00 6 1019.5
20260903164230 57 233 1.0 5.0 0.00 0.00 0.00 6 1019.7
20260903163230 57 0 0.0 1.0 0.00 0.00 0.00 6 1019.7
20260903162230 57 268 2.0 3.0 0.00 0.00 0.00 6 1019.8
20260903161230 58 268 4.0 7.0 0.00 0.00 0.00 6 1019.9
20260903160230 58 258 2.0 8.0 0.00 0.00 0.00 6 1020.0
20260903155230 58 240 2.0 6.0 0.00 0.00 0.00 6 1019.9
20260903154230 58 256 7.0 9.0 0.00 0.00 0.00 6 1019.8
20260903153230 58 259 7.0 11.0 0.00 0.00 0.00 6 1019.9
20260903152230 59 245 5.0 11.0 0.00 0.00 0.00 6 1020.1
20260903151230 59 264 12.0 13.0 0.00 0.00 0.00 6 1020.0
20260903150230 59 218 7.0 11.0 0.00 0.00 0.00 6 1020.1
20260903145230 58 224 6.0 11.0 0.00 0.00 0.00 6 1020.3
20260903144230 58 232 2.0 5.0 0.00 0.00 0.00 6 1020.4
20260903143229 58 0 0.0 2.0 0.00 0.00 0.00 6 1020.4
20260903142229 58 232 3.0 4.0 0.00 0.00 0.00 6 1020.3
20260903141229 59 259 4.0 7.0 0.00 0.00 0.00 6 1020.3
20260903140229 59 252 5.0 9.0 0.00 0.00 0.00 6 1020.2
20260903135229 60 216 4.0 9.0 0.00 0.00 0.00 6 1020.1
20260903134229 60 241 5.0 10.0 0.00 0.00 0.00 6 1019.9
20260903133230 60 261 9.0 11.0 0.00 0.00 0.00 6 1019.9
20260903132229 60 245 6.0 7.0 0.00 0.00 0.00 6 1019.9
20260903131228 61 229 4.0 9.0 0.00 0.00 0.00 6 1019.6
20260903130228 61 260 3.0 13.0 0.00 0.00 0.00 5 1019.5
20260903125228 61 243 5.0 7.0 0.00 0.00 0.00 5 1019.4
20260903124228 62 241 2.0 9.0 0.00 0.00 0.00 5 1019.2
20260903123228 62 195 8.0 16.0 0.00 0.00 0.00 5 1019.0
20260903122228 62 234 4.0 13.0 0.00 0.00 0.00 5 1019.0
20260903121228 62 244 12.0 16.0 0.00 0.00 0.00 5 1019.0
20260903120228 62 249 12.0 12.0 0.00 0.00 0.00 6 1018.8
20260903115228 62 249 5.0 9.0 0.00 0.00 0.00 6 1018.7
20260903114228 62 255 2.0 3.0 0.00 0.00 0.00 6 1018.7
20260903113228 62 255 4.0 5.0 0.00 0.00 0.00 6 1018.5
20260903112228 62 251 1.0 3.0 0.00 0.00 0.00 6 1018.4
20260903111228 63 0 0.0 0.0 0.00 0.00 0.00 6 1018.3
20260903110228 63 0 0.0 3.0 0.00 0.00 0.00 5 1018.2
20260903105228 64 247 2.0 3.0 0.00 0.00 0.00 5 1017.8
20260903104228 64 247 2.0 6.0 0.00 0.00 0.00 5 1017.6
20260903103228 64 283 3.0 6.0 0.00 0.00 0.00 5 1017.7
20260903102228 64 291 3.0 4.0 0.00 0.00 0.00 5 1017.6
20260903101228 65 285 2.0 7.0 0.00 0.00 0.00 5 1017.1
20260903100228 65 267 2.0 5.0 0.00 0.00 0.00 5 1016.9
20260903095227 66 291 3.0 4.0 0.00 0.00 0.00 5 1016.8
20260903094227 66 261 2.0 3.0 0.00 0.00 0.00 5 1016.6
20260903093227 67 226 2.0 6.0 0.00 0.00 0.00 5 1016.0
20260903092227 67 226 4.0 8.0 0.00 0.00 0.00 5 1015.7
20260903091227 68 257 3.0 8.0 0.00 0.00 0.00 5 1015.6
20260903090227 68 274 2.0 3.0 0.00 0.00 0.00 4 1015.6
20260903085227 68 259 3.0 4.0 0.00 0.00 0.00 4 1015.3
20260903084438 68 285 3.0 7.0 0.00 0.00 0.00 4 1015.1
20260903083438 69 225 5.0 7.0 0.00 0.00 0.00 4 1014.9
20260903082438 69 257 4.0 11.0 0.00 0.00 0.00 4 1014.7
20260903081437 70 249 4.0 10.0 0.00 0.00 0.00 4 1014.5
20260903080436 70 237 2.0 10.0 0.00 0.00 0.00 4 1014.3
20260903075435 68 285 2.0 3.0 0.00 0.00 0.00 4 1014.2
20260903074435 69 305 1.0 3.0 0.00 0.00 0.00 4 1014.2
20260903073435 71 305 1.0 4.0 0.00 0.00 0.00 4 1013.9
20260903072435 71 0 0.0 5.0 0.00 0.00 0.00 4 1013.8
20260903071435 72 0 0.0 4.0 0.00 0.00 0.00 4 1013.6
20260903070435 72 0 6.0 6.0 0.00 0.00 0.00 4 1013.3
20260903065435 74 235 1.0 4.0 0.00 0.00 0.00 4 1013.1
20260903064435 75 242 3.0 9.0 0.00 0.00 0.00 3 1012.8
20260903063435 75 262 1.0 10.0 0.00 0.00 0.00 3 1012.5
20260903062435 76 257 5.0 11.0 0.00 0.00 0.00 3 1012.5
20260903061435 76 311 2.0 12.0 0.00 0.00 0.00 3 1012.3
20260903060435 76 268 3.0 15.0 0.00 0.00 0.00 3 1012.2
20260903055435 76 270 1.0 14.0 0.00 0.00 0.00 3 1011.9
20260903054435 77 129 5.0 9.0 0.00 0.00 0.00 3 1011.9
20260903053435 77 296 2.0 10.0 0.00 0.00 0.00 3 1011.8
20260903052435 78 274 2.0 10.0 0.00 0.00 0.00 3 1011.8
20260903051435 78 255 5.0 13.0 0.00 0.00 0.00 3 1011.7
20260903050439 78 175 5.0 11.0 0.00 0.00 0.00 3 1011.6
20260903045439 78 228 10.0 14.0 0.00 0.00 0.00 3 1011.4
20260903044439 78 222 10.0 12.0 0.00 0.00 0.00 3 1011.3
20260903043442 79 267 4.0 12.0 0.00 0.00 0.00 3 1010.9
20260903042439 79 274 4.0 14.0 0.00 0.00 0.00 3 1010.8
20260903041447 79 220 7.0 13.0 0.00 0.00 0.00 3 1010.9
20260903040437 79 245 3.0 8.0 0.00 0.00 0.00 3 1010.6
20260903035434 79 228 10.0 15.0 0.00 0.00 0.00 3 1010.5
20260903034437 79 218 5.0 10.0 0.00 0.00 0.00 3 1010.5
20260903032434 80 256 9.0 15.0 0.00 0.00 0.00 3 1010.4
20260903031437 79 233 3.0 13.0 0.00 0.00 0.00 3 1010.3
20260903030438 79 252 9.0 14.0 0.00 0.00 0.00 3 1010.2
20260903025434 79 251 4.0 16.0 0.00 0.00 0.00 3 1010.2
20260903024437 79 212 3.0 15.0 0.00 0.00 0.00 3 1010.3
20260903021435 79 247 9.0 12.0 0.00 0.00 0.00 3 1010.3
20260903020438 79 190 8.0 15.0 0.00 0.00 0.00 3 1010.5
20260903015435 78 198 7.0 16.0 0.00 0.00 0.00 3 1010.3
20260903014435 78 185 6.0 13.0 0.00 0.00 0.00 3 1010.5
20260903013433 78 202 8.0 15.0 0.00 0.00 0.00 3 1010.4
20260903012437 79 252 5.0 14.0 0.00 0.00 0.00 3 1010.3
20260903011433 79 210 4.0 14.0 0.00 0.00 0.00 3 1010.3
20260903010437 79 260 8.0 16.0 0.00 0.00 0.00 3 1010.1
20260903005434 79 216 6.0 15.0 0.00 0.00 0.00 3 1010.2
20260903004437 78 293 15.0 17.0 0.00 0.00 0.00 3 1010.3
20260903003435 78 238 5.0 16.0 0.00 0.00 0.00 4 1010.4
20260903002432 78 216 10.0 16.0 0.00 0.00 0.00 4 1010.1
20260903001436 78 254 9.0 14.0 0.00 0.00 0.00 4 1010.0
20260903000435 78 224 7.0 17.0 0.00 0.00 0.00 4 1010.1
20260902235433 77 233 5.0 12.0 0.00 0.00 0.00 4 1010.1
20260902234435 78 231 5.0 22.0 0.00 0.00 0.00 4 1010.0
20260902233435 77 231 5.0 12.0 0.00 0.00 0.00 4 1009.8
20260902232436 77 210 1.0 13.0 0.00 0.00 0.00 4 1009.7
20260902231435 76 292 3.0 11.0 0.00 0.00 0.00 4 1009.6
20260902230432 76 209 4.0 11.0 0.00 0.00 0.00 4 1009.5
20260902225435 75 353 5.0 5.0 0.00 0.00 0.00 4 1009.4
20260902224432 74 131 4.0 5.0 0.00 0.00 0.00 5 1009.4
20260902222436 73 71 2.0 4.0 0.00 0.00 0.00 5 1009.5
20260902221436 72 20 2.0 5.0 0.00 0.00 0.00 5 1009.7
20260902220435 71 50 2.0 3.0 0.00 0.00 0.00 5 1009.8
20260902215435 70 0 0.0 4.0 0.00 0.00 0.00 5 1009.8
20260902214432 70 125 1.0 3.0 0.00 0.00 0.00 5 1009.7
20260902213435 69 0 0.0 4.0 0.00 0.00 0.00 5 1009.6
20260902212435 68 129 2.0 4.0 0.00 0.00 0.00 5 1009.6
20260902211432 66 110 3.0 4.0 0.00 0.00 0.00 6 1009.5
20260902210432 66 104 1.0 3.0 0.00 0.00 0.00 6 1009.6
20260902205432 65 93 3.0 3.0 0.00 0.00 0.00 6 1009.6
20260902204436 64 93 1.0 2.0 0.00 0.00 0.00 6 1009.5
20260902203432 65 0 0.0 2.0 0.00 0.00 0.00 6 1009.5
20260902202433 65 0 0.0 4.0 0.00 0.00 0.00 6 1009.8
20260902201432 64 91 4.0 4.0 0.00 0.00 0.00 6 1009.9
20260902200432 65 87 4.0 8.0 0.00 0.00 0.00 6 1009.9
20260902195436 64 0 0.0 3.0 0.00 0.00 0.00 6 1009.7
20260902194432 65 209 1.0 2.0 0.00 0.00 0.00 6 1010.1
20260902193432 65 229 3.0 3.0 0.00 0.00 0.00 6 1010.2